Location: Newark
(46.6333°N, 8.8333°E)
Time: 12:49:25
(UTC+00:00)

Envisat - Visible Passes

Search period start: 18 August 2019 00:00
Search period end: 28 August 2019 00:00
Orbit: 764 x 766 km, 98.1° (Epoch: 17 August)

Date Brightness Start Highest point End Pass type
(mag) Time Alt. Az. Time Alt. Az. Time Alt. Az.
19 Aug 6.1 19:15:55 10° WSW 19:17:51 12° W 19:19:47 10° WNW visible
22 Aug 5.9 19:03:31 10° SW 19:06:27 15° W 19:09:23 10° NW visible
25 Aug 5.8 18:51:30 10° SW 18:55:03 19° W 18:58:38 10° NW visible
27 Aug 6.3 19:19:38 10° W 19:20:56 11° W 19:22:13 10° WNW visible
